FW4154 Weather Reports


Display with metric or nautical units.
time (UTC)temp
F
wind
direction
speed
MPH
gust
MPH
rain 1hr
in
rain 24hr
in
rain mn
in
humidity
%
barometer
mb
20260509094839 48 360 1.0 3.0 0.00 0.00 0.00 93 1000.2
20260509093842 48 360 0.0 3.0 0.00 0.00 0.00 93 1000.2
20260509092833 48 360 0.0 2.0 0.00 0.00 0.00 92 1000.2
20260509091846 49 360 0.0 2.0 0.00 0.00 0.00 92 1000.2
20260509091338 49 360 1.0 2.0 0.00 0.00 0.00 92 1000.2
20260509090338 49 360 0.0 2.0 0.00 0.00 0.00 92 1000.2
20260509085348 49 360 0.0 3.0 0.00 0.00 0.00 92 1000.2
20260509084829 49 360 1.0 3.0 0.00 0.00 0.00 91 1000.2
20260509083830 49 360 1.0 3.0 0.00 0.00 0.00 92 1000.2
20260509082849 49 360 0.0 2.0 0.00 0.00 0.00 92 1000.2
20260509082345 49 360 0.0 2.0 0.00 0.00 0.00 92 1000.2
20260509081341 49 360 0.0 2.0 0.00 0.00 0.00 92 1000.2
20260509080823 49 360 1.0 2.0 0.00 0.00 0.00 92 1000.2
20260509075831 49 360 0.0 2.0 0.00 0.00 0.00 91 1000.2
20260509075328 50 360 1.0 2.0 0.00 0.00 0.00 91 1000.2
20260509074345 50 360 1.0 2.0 0.00 0.00 0.00 91 1000.2
20260509073838 50 360 0.0 1.0 0.00 0.00 0.00 90 1000.2
20260509072844 50 360 0.0 2.0 0.00 0.00 0.00 90 1000.2
20260509072336 50 360 0.0 2.0 0.00 0.00 0.00 90 1000.2
20260509071349 50 360 0.0 1.0 0.00 0.00 0.00 89 1000.2
20260509070355 51 360 0.0 2.0 0.00 0.00 0.00 89 1000.2
20260509064832 51 360 0.0 0.0 0.00 0.00 0.00 89 1000.2
20260509064326 51 360 0.0 0.0 0.00 0.00 0.00 89 1000.2
20260509063344 52 360 0.0 2.0 0.00 0.00 0.00 88 1000.2
20260509062829 52 360 1.0 2.0 0.00 0.00 0.00 87 1000.2
20260509061845 53 360 0.0 3.0 0.00 0.00 0.00 87 1000.2
20260509061344 53 360 2.0 3.0 0.00 0.00 0.00 87 1000.2
20260509060603 52 360 0.0 1.0 0.00 0.00 0.00 85 1000.2
20260509042841 56 360 0.0 2.0 0.00 0.00 0.00 79 1000.2
20260509041849 57 360 0.0 3.0 0.00 0.00 0.00 77 1000.2
20260509040839 57 360 1.0 5.0 0.00 0.00 0.00 77 1000.2
20260509035844 56 360 0.0 2.0 0.00 0.00 0.00 79 1000.2
20260509034841 57 360 0.0 1.0 0.00 0.00 0.00 78 1000.2
20260509033847 58 360 0.0 2.0 0.00 0.00 0.00 74 1000.2
20260509032849 59 360 2.0 3.0 0.00 0.00 0.00 73 1000.2
20260509032344 60 360 1.0 3.0 0.00 0.00 0.00 72 1000.2
20260509031843 60 360 2.0 4.0 0.00 0.00 0.00 71 1000.2
20260509030852 60 360 2.0 5.0 0.00 0.00 0.00 74 1000.2
20260509025843 60 360 5.0 9.0 0.00 0.00 0.00 73 1000.2
20260509025342 60 360 5.0 10.0 0.00 0.00 0.00 75 1000.2
20260509024838 61 144 7.0 10.0 0.00 0.00 0.00 73 1000.2
20260509023848 61 146 8.0 10.0 0.00 0.00 0.00 71 1000.2
20260509023331 61 360 5.0 11.0 0.00 0.00 0.00 69 1000.2
20260509022354 61 146 7.0 10.0 0.00 0.00 0.00 69 1000.2
20260509021850 61 136 6.0 11.0 0.00 0.00 0.00 70 1000.2
20260509020840 61 121 6.0 8.0 0.00 0.00 0.00 68 1000.2
20260509020337 61 162 4.0 10.0 0.00 0.00 0.00 70 1000.2
20260509015337 61 147 6.0 10.0 0.00 0.00 0.00 70 1000.2
20260509014344 61 171 6.0 12.0 0.00 0.00 0.00 67 1000.2
20260509013340 61 175 7.0 11.0 0.00 0.00 0.00 70 1000.2
20260509012837 61 165 6.0 10.0 0.00 0.00 0.00 70 1000.2
20260509012338 61 117 7.0 11.0 0.00 0.00 0.00 69 1000.2
20260509011350 61 158 8.0 13.0 0.00 0.00 0.00 69 1000.2
20260509010359 61 151 11.0 13.0 0.00 0.00 0.00 70 1000.2
20260509005845 61 150 8.0 11.0 0.00 0.00 0.00 69 1000.2
20260509005345 61 165 6.0 11.0 0.00 0.00 0.00 66 1000.2
20260509004838 61 150 8.0 13.0 0.00 0.00 0.00 67 1000.2
20260509003850 61 130 10.0 14.0 0.00 0.00 0.00 69 1000.2
20260509003351 61 163 4.0 11.0 0.00 0.00 0.00 67 1000.2
20260509002849 61 105 6.0 11.0 0.00 0.00 0.00 68 1000.2
20260509002342 61 124 8.0 12.0 0.00 0.00 0.00 68 1000.2
20260509001344 61 155 6.0 11.0 0.00 0.00 0.00 67 1000.2
20260509000351 61 125 7.0 12.0 0.00 0.00 0.00 65 1000.2
20260508235350 61 129 9.0 13.0 0.00 0.00 0.00 68 1000.2
20260508234844 60 140 8.0 13.0 0.00 0.00 0.00 64 1000.2
20260508233843 60 103 10.0 14.0 0.00 0.00 0.00 67 1000.2
20260508232849 60 116 11.0 15.0 0.00 0.00 0.00 67 1000.2
20260508232343 60 111 9.0 13.0 0.00 0.00 0.00 68 1000.2
20260508231834 60 148 5.0 14.0 0.00 0.00 0.00 69 1000.2
20260508231332 60 124 7.0 14.0 0.00 0.00 0.00 68 1000.2
20260508230344 59 146 11.0 14.0 0.00 0.00 0.00 71 1000.2
20260508225341 59 108 9.0 14.0 0.00 0.00 0.00 68 1000.2
20260508224835 59 125 9.0 17.0 0.00 0.00 0.00 70 1000.2
20260508223844 59 168 6.0 12.0 0.00 0.00 0.00 69 1000.2
20260508222855 59 154 8.0 12.0 0.00 0.00 0.00 71 1000.2
20260508221847 58 126 7.0 17.0 0.00 0.00 0.00 72 1000.2
20260508220846 58 360 7.0 13.0 0.00 0.00 0.00 70 1000.2
20260508220337 58 153 6.0 15.0 0.00 0.00 0.00 71 1000.2
20260508214847 58 153 8.0 13.0 0.00 0.00 0.00 71 1000.2
20260508214332 58 118 8.0 11.0 0.00 0.00 0.00 71 1000.2
20260508213345 57 126 8.0 11.0 0.00 0.00 0.00 69 1000.2
20260508212841 57 360 8.0 11.0 0.00 0.00 0.00 70 1000.2
20260508211852 57 360 3.0 14.0 0.00 0.00 0.00 69 1000.2
20260508210841 57 360 8.0 14.0 0.00 0.00 0.00 74 1000.2
20260508210340 56 360 9.0 15.0 0.00 0.00 0.00 73 1000.2
20260508205834 56 360 9.0 15.0 0.00 0.00 0.00 76 1000.2
20260508205327 57 360 10.0 15.0 0.00 0.00 0.00 74 1000.2
20260508204352 56 360 11.0 16.0 0.00 0.00 0.00 76 1000.2
20260508203850 56 360 12.0 16.0 0.00 0.00 0.00 75 1000.2
20260508202849 56 360 8.0 13.0 0.00 0.00 0.00 74 1000.2
20260508202344 56 360 10.0 14.0 0.00 0.00 0.00 74 1000.2
20260508201839 56 360 8.0 15.0 0.00 0.00 0.00 77 1000.2
20260508200844 56 360 11.0 16.0 0.00 0.00 0.00 76 1000.2
20260508195849 56 360 12.0 16.0 0.00 0.00 0.00 73 1000.2
20260508195334 56 360 11.0 15.0 0.00 0.00 0.00 75 1000.2
20260508194338 55 360 10.0 15.0 0.00 0.00 0.00 74 1000.2
20260508193350 55 360 12.0 19.0 0.00 0.00 0.00 77 1000.2
20260508192349 55 360 13.0 20.0 0.00 0.00 0.00 77 1000.2
20260508191350 55 360 17.0 22.0 0.00 0.00 0.00 79 1000.2
20260508190848 55 360 14.0 19.0 0.00 0.00 0.00 76 1000.2
20260508185348 55 360 14.0 18.0 0.00 0.00 0.00 77 1000.2
20260508184353 55 360 13.0 17.0 0.00 0.00 0.00 78 1000.2
20260508183358 55 360 12.0 16.0 0.00 0.00 0.00 77 1000.2
20260508182848 55 360 10.0 14.0 0.00 0.00 0.00 79 1000.2
20260508182340 55 360 10.0 14.0 0.00 0.00 0.00 79 1000.2
20260508181347 55 360 7.0 12.0 0.00 0.00 0.00 77 1000.2
20260508180842 54 360 6.0 15.0 0.00 0.00 0.00 78 1000.2
20260508180340 54 360 10.0 16.0 0.00 0.00 0.00 79 1000.2
20260508175835 54 360 11.0 16.0 0.00 0.00 0.00 79 1000.2
20260508174849 54 360 9.0 16.0 0.00 0.00 0.00 80 1000.2
20260508174345 54 360 11.0 18.0 0.00 0.00 0.00 77 1000.2
20260508173833 54 360 12.0 18.0 0.00 0.00 0.00 79 1000.2
20260508172844 54 360 10.0 17.0 0.00 0.00 0.00 78 1000.2
20260508172337 54 360 12.0 17.0 0.00 0.00 0.00 79 1000.2
20260508171344 54 360 11.0 18.0 0.00 0.00 0.00 77 1000.2
20260508170349 54 360 10.0 17.0 0.00 0.00 0.00 80 1000.2
20260508165341 54 360 10.0 16.0 0.00 0.00 0.00 80 1000.2
20260508164339 53 360 9.0 14.0 0.00 0.00 0.00 80 1000.2
20260508163344 53 360 10.0 15.0 0.00 0.00 0.00 81 1000.2
20260508162841 53 360 10.0 17.0 0.00 0.00 0.00 80 1000.2
20260508162335 54 360 10.0 17.0 0.00 0.00 0.00 82 1000.2
20260508161340 54 360 8.0 13.0 0.00 0.00 0.00 82 1000.2
20260508160351 53 360 10.0 15.0 0.00 0.00 0.00 82 1000.2
20260508155830 53 360 10.0 15.0 0.00 0.00 0.00 83 1000.2
20260508154848 53 360 4.0 13.0 0.00 0.00 0.00 82 1000.2
20260508154347 53 360 7.0 12.0 0.00 0.00 0.00 83 1000.2
20260508153842 53 360 7.0 15.0 0.00 0.00 0.00 84 1000.2
20260508152903 53 360 12.0 16.0 0.00 0.00 0.00 84 1000.2
20260508152347 53 360 10.0 13.0 0.00 0.00 0.00 84 1000.2
20260508151347 53 360 11.0 16.0 0.00 0.00 0.00 86 1000.2
20260508150839 53 360 11.0 17.0 0.00 0.00 0.00 85 1000.2
20260508150339 53 12 14.0 17.0 0.00 0.00 0.00 84 1000.2
20260508145353 53 12 12.0 19.0 0.00 0.00 0.00 86 1000.2
20260508144833 53 13 12.0 17.0 0.00 0.00 0.00 86 1000.2
20260508143847 53 13 10.0 15.0 0.00 0.00 0.00 87 1000.2
20260508142845 53 11 10.0 16.0 0.00 0.00 0.00 87 1000.2
20260508141838 53 12 10.0 16.0 0.00 0.00 0.00 87 1000.2
20260508141337 53 12 12.0 15.0 0.00 0.00 0.00 87 1000.2
20260508140342 53 11 13.0 17.0 0.00 0.00 0.00 87 1000.2
20260508135339 53 12 13.0 17.0 0.00 0.00 0.00 87 1000.2
20260508134348 53 12 10.0 14.0 0.00 0.00 0.00 86 1000.2
20260508133831 53 12 10.0 15.0 0.00 0.00 0.00 86 1000.2
20260508132859 53 11 11.0 15.0 0.00 0.00 0.00 87 1000.2
20260508132340 53 11 7.0 14.0 0.00 0.00 0.00 88 1000.2
20260508131836 53 11 11.0 16.0 0.00 0.00 0.00 88 1000.2
20260508130846 53 11 9.0 12.0 0.00 0.00 0.00 88 1000.2
20260508130333 53 11 9.0 12.0 0.00 0.00 0.00 88 1000.2
20260508125336 53 12 9.0 13.0 0.00 0.00 0.00 89 1000.2
20260508124345 53 11 9.0 14.0 0.00 0.00 0.00 91 1000.2
20260508123350 53 11 11.0 14.0 0.00 0.00 0.00 93 1000.2
20260508122839 52 11 10.0 15.0 0.00 0.00 0.00 95 1000.2
20260508122340 51 11 8.0 13.0 0.00 0.00 0.00 95 1000.2
20260508120847 49 9 1.0 4.0 0.00 0.00 0.00 94 1000.2
20260508115842 49 9 0.0 2.0 0.00 0.00 0.00 94 1000.2
20260508115338 49 9 0.0 2.0 0.00 0.00 0.00 94 1000.2
20260508114352 49 9 0.0 0.0 0.00 0.00 0.00 94 1000.2
20260508113848 49 9 0.0 0.0 0.00 0.00 0.00 94 1000.2
20260508113337 49 9 0.0 0.0 0.00 0.00 0.00 94 1000.2
20260508112835 49 9 0.0 0.0 0.00 0.00 0.00 94 1000.2
20260508111836 49 9 0.0 0.0 0.00 0.00 0.00 94 1000.2
20260508110845 49 9 0.0 2.0 0.00 0.00 0.00 93 1000.2
20260508110338 50 9 1.0 2.0 0.00 0.00 0.00 93 1000.2
20260508104840 50 9 1.0 3.0 0.00 0.00 0.00 93 1000.2
20260508104330 50 9 1.0 3.0 0.00 0.00 0.00 93 1000.2
20260508103339 50 9 1.0 2.0 0.00 0.00 0.00 93 1000.2
20260508102839 50 9 0.0 2.0 0.00 0.00 0.00 93 1000.2
20260508101836 50 9 0.0 2.0 0.00 0.00 0.00 93 1000.2
20260508100848 50 9 0.0 2.0 0.00 0.00 0.00 93 1000.2
20260508095845 50 9 0.0 2.0 0.00 0.00 0.00 93 1000.2